Regional Weather Roundup
Issued by NWS

Home | Current Version | Previous Version | Text Only | Print | Product List | Glossary Off
Versions: 1 2 3 4 5 6 7 8 9 10 11 12 13 14 15 16 17 18 19 20 21 22 23 24 25 26 27 28 29 30 31 32 33 34 35 36 37 38 39 40 41 42 43 44 45 46 47 48 49 50

000
ASUS43 KIND 250909
RWRIN

WEATHER ROUNDUP FOR INDIANA
NATIONAL WEATHER SERVICE INDIANAPOLIS IN
500 AM EDT SAT MAR 25 2017

NOTE: "FAIR" INDICATES FEW OR NO CLOUDS BELOW 12,000 FEET WITH NO
SIGNIFICANT WEATHER AND/OR OBSTRUCTIONS TO VISIBILITY.

* - STATION DOES NOT REPORT WEATHER SUCH AS PRECIPITATION OR FOG.

+ - STATION NOT QUALITY CONTROLLED BY THE NATIONAL WEATHER SERVICE.
    USE DATA WITH CAUTION...ESPECIALLY DEWPOINT AND RELATIVE
    HUMIDITY OBSERVATIONS.

INZ001>003-010>013-019-020-251000-
NORTHWEST INDIANA

CITY           SKY/WX    TMP DP  RH WIND       PRES   REMARKS
GARY /AIRPORT/ CLOUDY    40  38  93 N9        30.04F
KNOX *+        CLOUDY    43  30  61 N7        30.03R
LA PORTE +     CLOUDY    41  40  97 CALM      30.03F FOG
MICHIGAN CITY+ LGT RAIN  37  37 100 N5        30.04F
MONTICELLO +   MOCLDY    56  51  84 CALM      29.99F
RENSSELAER +   DRIZZLE   43  43 100 N12       30.01S
VALPARAISO     CLOUDY    41  40  96 N6        30.03F

$$

LMZ046-743>745-251000-
SOUTHERN LAKE MICHIGAN

STATION/POSITION TIME  TEMP    WIND        PRES    WAVE
                       AIR SEA DIR/SP/G            HT
                 (UTC) (F)     (DEG/KT/KT) (MB)    (FT)
BURNS HARBOR     0840   38     330/  5/  7 1017.9F
MICHIGAN CITY    0840   38     280/  5/  6   N/A

$$

INZ004-005-014>016-021>024-251000-
NORTH CENTRAL INDIANA

CITY           SKY/WX    TMP DP  RH WIND       PRES   REMARKS
GOSHEN         CLOUDY    54  50  86 CALM      30.01S
LOGANSPORT +   MOCLDY    54  50  87 S7        30.01F
PERU/GRISSOM   MOCLDY    57  54  88 S8        29.99F
ROCHESTER +    MOCLDY    57  52  82 CALM      30.02S
SOUTH BEND     RAIN      42  41  96 NW9       30.05R FOG
WARSAW +       CLOUDY    57  50  77 CALM      30.01F

$$

INZ006>009-017-018-025>027-251000-
NORTHEAST INDIANA

CITY           SKY/WX    TMP DP  RH WIND       PRES   REMARKS
ANGOLA *+      CLOUDY    55  54  94 CALM      30.02F
AUBURN +       CLOUDY    54  48  82 CALM      30.04R
FORT WAYNE     CLOUDY    56  51  84 S8        30.02F
HUNTINGTON +   CLOUDY    59  52  77 S7        30.02S
KENDALLVILLE + CLOUDY    57  52  84 S3        30.03S

$$

INZ028-029-035-036-043>045-051>053-251000-
WEST CENTRAL INDIANA

CITY           SKY/WX    TMP DP  RH WIND       PRES   REMARKS
CRAWFORDSVL +  CLOUDY    57  52  82 SE9       29.99F
GREENCASTLE +  CLOUDY    59  52  77 S7        30.01F
LAFAYETTE      CLOUDY    59  52  77 E6        29.97F
TERRE HAUTE    MOCLDY    63  52  67 SE12      29.98F

$$

INZ030>032-037>040-046>048-054>057-064-065-251000-
CENTRAL INDIANA

CITY           SKY/WX    TMP DP  RH WIND       PRES   REMARKS
CP ATTERBURY + PTCLDY    61  52  72 S6        30.04F
FISHERS *+     CLOUDY    57  55  94 S9        30.03F
FRANKFORT +    MOCLDY    61  54  77 S5        30.01F
GREENWOOD *+   MOCLDY    61  53  76 S8        30.04F
INDIANAPOLIS   MOCLDY    60  52  74 SE8       30.01F
-EAGLE CREEK   CLOUDY    59  51  75 SE6       30.01F
KOKOMO +       CLOUDY    56  51  84 SE8       30.02F
MARION +       CLOUDY    58  52  79 S8        30.03F
MT COMFORT *+  CLOUDY    57  52  82 S7        30.04F
SHELBYVILLE    CLOUDY    63  51  65 S13       30.04F
ZIONSVILLE +   PTCLDY    60  52  75 S7        30.02F

$$

INZ033-034-041-042-049-050-058-059-251000-
EAST CENTRAL INDIANA

CITY           SKY/WX    TMP DP  RH WIND       PRES   REMARKS
MUNCIE         CLOUDY    63  52  67 S10       30.04F
RICHMOND +     MOCLDY    54  50  87 S9        30.08F

$$

INZ060-061-067>069-081>083-085>088-251000-
SOUTHWEST INDIANA

CITY           SKY/WX    TMP DP  RH WIND       PRES   REMARKS
EVANSVILLE     MOCLDY    62  52  69 SE6       29.98F
HUNTINGBURG *+ CLOUDY    64  52  64 S10       30.01F
WASHINGTON +   CLOUDY    62  50  65 CALM      29.99F

$$

INZ062-063-066-070>080-084-089>092-251000-
SOUTH CENTRAL AND SOUTHEAST INDIANA

CITY           SKY/WX    TMP DP  RH WIND       PRES   REMARKS
BEDFORD +      CLOUDY    61  50  67 SE9       30.02F
BLOOMINGTON    PTCLDY    61  51  70 SE6       30.02F
MADISON *+     CLOUDY    61  48  63 SE6       30.09F
NORTH VERNON + MOCLDY    64  50  59 SE8       30.07F
SEYMOUR +      CLOUDY    63  50  63 SE8       30.05F

$$





USA.gov is the U.S. government's official web portal to all federal, state and local government web resources and services.